• en Belgique
  • Liste des pays
  • À 7 jours
  • Température de l'eau
  • Carte satellitaire
  • Carte météo
  • Widgets météo
  • user-avatar
    Se connecter

    Météo par heure à Constantine

    Ce jour, 25 Septembre, Lundi

    Heure Température Précipitation Vent Pression Humidité
    00:00 +19°C° 0 mm 1 m/s 713 mmHg 82%
    01:00 +19°C° 0 mm 1 m/s 712 mmHg 81%
    02:00 +19°C° 0 mm 1 m/s 712 mmHg 81%
    03:00 +18°C° 0 mm 1 m/s 712 mmHg 80%
    04:00 +18°C° 0 mm 1 m/s 712 mmHg 77%
    05:00 +18°C° 0 mm 1 m/s 712 mmHg 74%
    06:00 +18°C° 0 mm 1 m/s 712 mmHg 71%
    07:00 +19°C° 0 mm 0 m/s 712 mmHg 59%
    08:00 +21°C° 0 mm 0 m/s 713 mmHg 46%
    09:00 +23°C° 0 mm 0 m/s 713 mmHg 34%
    10:00 +26°C° 0 mm 1 m/s 713 mmHg 30%
    11:00 +27°C° 0 mm 1 m/s 713 mmHg 26%
    12:00 +28°C° 0 mm 1 m/s 713 mmHg 22%
    13:00 +28°C° 0 mm 2 m/s 713 mmHg 22%
    14:00 +28°C° 0 mm 2 m/s 713 mmHg 22%
    15:00 +28°C° 0 mm 2 m/s 713 mmHg 23%
    16:00 +27°C° 0 mm 2 m/s 712 mmHg 28%
    17:00 +26°C° 0 mm 2 m/s 712 mmHg 33%
    18:00 +25°C° 0 mm 2 m/s 712 mmHg 39%
    19:00 +24°C° 0 mm 2 m/s 712 mmHg 43%
    20:00 +23°C° 0 mm 1 m/s 712 mmHg 47%
    21:00 +22°C° 0 mm 1 m/s 712 mmHg 52%
    22:00 +22°C° 0 mm 1 m/s 712 mmHg 53%
    23:00 +21°C° 0 mm 1 m/s 712 mmHg 53%

    Demain, 26 Septembre, Mardi

    Heure Température Précipitation Vent Pression Humidité
    00:00 +21°C° 0 mm 1 m/s 712 mmHg 54%
    01:00 +21°C° 0 mm 1 m/s 711 mmHg 55%
    02:00 +20°C° 0 mm 1 m/s 711 mmHg 55%
    03:00 +20°C° 0 mm 1 m/s 711 mmHg 55%
    04:00 +20°C° 0 mm 1 m/s 711 mmHg 55%
    05:00 +20°C° 0 mm 1 m/s 711 mmHg 54%
    06:00 +20°C° 0 mm 1 m/s 711 mmHg 54%
    07:00 +22°C° 0 mm 1 m/s 711 mmHg 46%
    08:00 +24°C° 0 mm 1 m/s 712 mmHg 39%
    09:00 +26°C° 0 mm 1 m/s 713 mmHg 31%
    10:00 +27°C° 0 mm 1 m/s 712 mmHg 28%
    11:00 +28°C° 0 mm 2 m/s 712 mmHg 25%
    12:00 +29°C° 0 mm 2 m/s 712 mmHg 22%
    13:00 +29°C° 0 mm 2 m/s 712 mmHg 22%
    14:00 +29°C° 0 mm 3 m/s 712 mmHg 23%
    15:00 +29°C° 0 mm 3 m/s 711 mmHg 24%
    16:00 +28°C° 0 mm 3 m/s 711 mmHg 29%
    17:00 +26°C° 0 mm 3 m/s 711 mmHg 34%
    18:00 +25°C° 0 mm 3 m/s 711 mmHg 40%
    19:00 +24°C° 0 mm 2 m/s 712 mmHg 44%
    20:00 +23°C° 0 mm 1 m/s 712 mmHg 48%
    21:00 +22°C° 0 mm 1 m/s 712 mmHg 52%
    22:00 +22°C° 0 mm 1 m/s 712 mmHg 53%
    23:00 +21°C° 0 mm 1 m/s 712 mmHg 54%

    Après-demain, 27 Septembre, Mercredi

    Heure Température Précipitation Vent Pression Humidité
    00:00 +19°C° 0 mm 0 m/s 712 mmHg 55%
    01:00 +18°C° 0 mm 0 m/s 712 mmHg 56%
    02:00 +18°C° 0 mm 0 m/s 711 mmHg 56%
    03:00 +18°C° 0 mm 0 m/s 711 mmHg 56%
    04:00 +18°C° 0 mm 0 m/s 711 mmHg 57%
    05:00 +18°C° 0 mm 0 m/s 712 mmHg 58%
    06:00 +18°C° 0 mm 0 m/s 712 mmHg 59%
    07:00 +21°C° 0 mm 1 m/s 712 mmHg 54%
    08:00 +23°C° 0 mm 1 m/s 713 mmHg 50%
    09:00 +24°C° 0 mm 1 m/s 713 mmHg 45%
    10:00 +25°C° 0 mm 1 m/s 713 mmHg 42%
    11:00 +26°C° 0 mm 2 m/s 713 mmHg 40%
    12:00 +27°C° 0 mm 2 m/s 713 mmHg 37%
    13:00 +28°C° 0 mm 2 m/s 713 mmHg 38%
    14:00 +28°C° 0 mm 3 m/s 713 mmHg 40%
    15:00 +28°C° 0 mm 4 m/s 713 mmHg 41%
    16:00 +26°C° 0 mm 4 m/s 713 mmHg 50%
    17:00 +25°C° 0 mm 4 m/s 712 mmHg 59%
    18:00 +22°C° 0 mm 3 m/s 712 mmHg 68%
    19:00 +21°C° 0,1 mm 3 m/s 713 mmHg 72%
    20:00 +21°C° 0,1 mm 2 m/s 713 mmHg 76%
    21:00 +21°C° 0,1 mm 1 m/s 714 mmHg 80%
    22:00 +20°C° 0 mm 1 m/s 714 mmHg 81%
    23:00 +20°C° 0 mm 1 m/s 714 mmHg 82%

    28 Septembre, Jeudi

    Heure Température Précipitation Vent Pression Humidité
    00:00 +20°C° 0 mm 1 m/s 714 mmHg 84%
    01:00 +20°C° 0 mm 1 m/s 713 mmHg 85%
    02:00 +19°C° 0 mm 1 m/s 713 mmHg 86%
    03:00 +19°C° 0 mm 1 m/s 713 mmHg 87%
    04:00 +19°C° 0 mm 1 m/s 713 mmHg 87%
    05:00 +19°C° 0 mm 1 m/s 713 mmHg 87%
    06:00 +19°C° 0 mm 1 m/s 713 mmHg 88%
    07:00 +20°C° 0 mm 1 m/s 714 mmHg 80%
    08:00 +21°C° 0 mm 1 m/s 714 mmHg 72%
    09:00 +23°C° 0 mm 1 m/s 715 mmHg 64%
    10:00 +24°C° 0 mm 2 m/s 715 mmHg 60%
    11:00 +25°C° 0 mm 2 m/s 715 mmHg 55%
    12:00 +26°C° 0 mm 3 m/s 714 mmHg 50%
    13:00 +26°C° 0 mm 3 m/s 714 mmHg 50%
    14:00 +26°C° 0 mm 3 m/s 714 mmHg 49%
    15:00 +26°C° 0 mm 4 m/s 714 mmHg 49%
    16:00 +25°C° 0 mm 3 m/s 714 mmHg 54%
    17:00 +22°C° 0 mm 3 m/s 714 mmHg 60%
    18:00 +21°C° 0 mm 3 m/s 714 mmHg 66%
    19:00 +20°C° 0 mm 2 m/s 714 mmHg 70%
    20:00 +20°C° 0 mm 2 m/s 714 mmHg 74%
    21:00 +20°C° 0 mm 1 m/s 714 mmHg 78%
    22:00 +20°C° 0 mm 1 m/s 714 mmHg 79%
    23:00 +19°C° 0 mm 1 m/s 714 mmHg 81%

    29 Septembre, Vendredi

    Heure Température Précipitation Vent Pression Humidité
    00:00 +19°C° 0 mm 1 m/s 714 mmHg 83%
    01:00 +19°C° 0 mm 1 m/s 713 mmHg 84%
    02:00 +19°C° 0 mm 1 m/s 713 mmHg 85%
    03:00 +16°C° 0 mm 0 m/s 713 mmHg 86%
    04:00 +16°C° 0 mm 0 m/s 713 mmHg 86%
    05:00 +16°C° 0 mm 0 m/s 713 mmHg 86%
    06:00 +16°C° 0 mm 0 m/s 713 mmHg 86%
    07:00 +18°C° 0 mm 0 m/s 713 mmHg 78%
    08:00 +19°C° 0 mm 0 m/s 714 mmHg 70%
    09:00 +21°C° 0 mm 0 m/s 714 mmHg 62%
    10:00 +24°C° 0 mm 1 m/s 714 mmHg 57%
    11:00 +25°C° 0 mm 1 m/s 714 mmHg 52%
    12:00 +26°C° 0 mm 2 m/s 714 mmHg 46%
    13:00 +26°C° 0 mm 2 m/s 713 mmHg 45%
    14:00 +26°C° 0 mm 3 m/s 713 mmHg 44%
    15:00 +27°C° 0 mm 3 m/s 712 mmHg 43%
    16:00 +25°C° 0 mm 3 m/s 712 mmHg 49%
    17:00 +24°C° 0 mm 3 m/s 712 mmHg 55%
    18:00 +22°C° 0 mm 3 m/s 712 mmHg 60%
    19:00 +21°C° 0 mm 2 m/s 713 mmHg 65%
    20:00 +20°C° 0 mm 2 m/s 713 mmHg 69%
    21:00 +20°C° 0 mm 1 m/s 713 mmHg 73%
    22:00 +20°C° 0 mm 1 m/s 713 mmHg 75%
    23:00 +20°C° 0 mm 1 m/s 712 mmHg 76%

    30 Septembre, Samedi

    Heure Température Précipitation Vent Pression Humidité
    00:00 +17°C° 0 mm 0 m/s 712 mmHg 78%
    01:00 +17°C° 0 mm 0 m/s 712 mmHg 79%
    02:00 +17°C° 0 mm 0 m/s 712 mmHg 81%
    03:00 +16°C° 0 mm 0 m/s 712 mmHg 82%
    04:00 +16°C° 0 mm 0 m/s 712 mmHg 82%
    05:00 +16°C° 0 mm 0 m/s 712 mmHg 82%
    06:00 +16°C° 0 mm 0 m/s 712 mmHg 82%
    07:00 +17°C° 0 mm 0 m/s 712 mmHg 74%
    08:00 +21°C° 0 mm 1 m/s 713 mmHg 66%
    09:00 +22°C° 0 mm 1 m/s 713 mmHg 57%
    10:00 +24°C° 0 mm 1 m/s 713 mmHg 50%
    11:00 +25°C° 0 mm 2 m/s 713 mmHg 43%
    12:00 +26°C° 0 mm 3 m/s 713 mmHg 36%
    13:00 +26°C° 0 mm 3 m/s 712 mmHg 37%
    14:00 +26°C° 0 mm 3 m/s 712 mmHg 37%
    15:00 +26°C° 0 mm 4 m/s 712 mmHg 38%
    16:00 +25°C° 0 mm 3 m/s 712 mmHg 46%
    17:00 +22°C° 0 mm 3 m/s 712 mmHg 54%
    18:00 +21°C° 0 mm 2 m/s 712 mmHg 62%
    19:00 +20°C° 0 mm 2 m/s 712 mmHg 67%
    20:00 +21°C° 0 mm 1 m/s 712 mmHg 71%
    21:00 +20°C° 0 mm 1 m/s 712 mmHg 76%
    22:00 +20°C° 0 mm 1 m/s 712 mmHg 77%
    23:00 +19°C° 0 mm 1 m/s 712 mmHg 78%
    Voir plus